Hourly Data Report for May 07, 2006

TORONTO CITY
ONTARIO

43°40'00.000" N
79°24'00.000" W
112.50 m
6158355
71508
XTO

Download Data

Hourly Data (May 2006)
Hourly Data Report for May 7, 2006
TIME
LST
Temp Definition
°C
Dew Point Definition
°C
Rel Hum Definition
%
Precip. Amount Definition
mm

Wind Dir Definition
10's deg

Wind Spd Definition
km/h
Visibility Definition
km
Stn Press Definition
kPa
Hmdx Definition


Wind Chill Definition


Weather Definition


00:00 5.7 -3.3 52   LegendMM LegendMM   100.55     LegendNANA
01:00 4.9 -2.4 59   LegendMM LegendMM   100.57     LegendNANA
02:00 5.2 -2.0 60   LegendMM LegendMM   100.52     LegendNANA
03:00 4.7 -1.5 64   LegendMM LegendMM   100.54     LegendNANA
04:00 4.8 -0.9 67   LegendMM LegendMM   100.53     LegendNANA
05:00 4.4 -0.8 69   LegendMM LegendMM   100.59     LegendNANA
06:00 5.4 0.0 68   LegendMM LegendMM   100.64     LegendNANA
07:00 7.5 -2.2 50   LegendMM LegendMM   100.69     LegendNANA
08:00 7.9 -1.8 50   LegendMM LegendMM   100.69     LegendNANA
09:00 8.8 1.9 62   LegendMM LegendMM   100.69     LegendNANA
10:00 9.2 -2.2 45   LegendMM LegendMM   100.70     LegendNANA
11:00 10.6 -3.9 36   LegendMM LegendMM   100.65     LegendNANA
12:00 10.9 -2.9 38   LegendMM LegendMM   100.59     LegendNANA
13:00 13.0 0.2 41   LegendMM LegendMM   100.51     LegendNANA
14:00 12.6 -0.1 42   LegendMM LegendMM   100.46     LegendNANA
15:00 11.1 1.3 51   LegendMM LegendMM   100.40     LegendNANA
16:00 10.7 0.1 48   LegendMM LegendMM   100.36     LegendNANA
17:00 10.1 0.0 49   LegendMM LegendMM   100.36     LegendNANA
18:00 9.5 2.0 59   LegendMM LegendMM   100.37     LegendNANA
19:00 9.2 2.0 61   LegendMM LegendMM   100.36     LegendNANA
20:00 8.9 1.9 61   LegendMM LegendMM   100.38     LegendNANA
21:00 8.7 2.1 63   LegendMM LegendMM   100.42     LegendNANA
22:00 9.1 2.6 64   LegendMM LegendMM   100.45     LegendNANA
23:00 8.7 2.6 65   LegendMM LegendMM   100.44     LegendNANA

Notes on Data Quality.

Legend

  • E = Estimated
  • M = Missing
  • NA = Not Available*
  • [empty] = Indicates an unobserved value
Date modified: